<?xml version="1.0" encoding="UTF-8" standalone="no" ?>
<gpx xmlns="http://www.topografix.com/GPX/1/1" xmlns:xsi="http://www.w3.org/2001/XMLSchema-instance" xsi:schemaLocation="http://www.topografix.com/GPX/1/1 http://www.topografix.com/GPX/1/1/gpx.xsd" version="1.1" creator="VisuGPX - https://www.visugpx.com">
  <metadata>
    <name>Lancieux</name>
  </metadata>
  <trk>
    <name><![CDATA[Sequence 1]]></name>
    <trkseg>
      <trkpt lat="48.60471" lon="-2.1564">
        <ele>9</ele>
        <time>2017-06-18T07:39:33Z</time>
      </trkpt>
      <trkpt lat="48.60491" lon="-2.15657">
        <ele>10</ele>
        <time>2017-06-18T07:39:38Z</time>
      </trkpt>
      <trkpt lat="48.60511" lon="-2.15678">
        <ele>10</ele>
        <time>2017-06-18T07:39:43Z</time>
      </trkpt>
      <trkpt lat="48.6053" lon="-2.15697">
        <ele>11</ele>
        <time>2017-06-18T07:39:48Z</time>
      </trkpt>
      <trkpt lat="48.60547" lon="-2.15716">
        <ele>12</ele>
        <time>2017-06-18T07:39:52Z</time>
      </trkpt>
      <trkpt lat="48.60564" lon="-2.15731">
        <ele>12</ele>
        <time>2017-06-18T07:39:57Z</time>
      </trkpt>
      <trkpt lat="48.6058" lon="-2.15716">
        <ele>12</ele>
        <time>2017-06-18T07:40:02Z</time>
      </trkpt>
      <trkpt lat="48.60591" lon="-2.15691">
        <ele>12</ele>
        <time>2017-06-18T07:40:08Z</time>
      </trkpt>
      <trkpt lat="48.60602" lon="-2.15667">
        <ele>13</ele>
        <time>2017-06-18T07:40:12Z</time>
      </trkpt>
      <trkpt lat="48.60612" lon="-2.15644">
        <ele>13</ele>
        <time>2017-06-18T07:40:18Z</time>
      </trkpt>
      <trkpt lat="48.60623" lon="-2.15625">
        <ele>13</ele>
        <time>2017-06-18T07:40:22Z</time>
      </trkpt>
      <trkpt lat="48.60635" lon="-2.15604">
        <ele>14</ele>
        <time>2017-06-18T07:40:28Z</time>
      </trkpt>
      <trkpt lat="48.60647" lon="-2.15585">
        <ele>14</ele>
        <time>2017-06-18T07:40:33Z</time>
      </trkpt>
      <trkpt lat="48.60659" lon="-2.15567">
        <ele>13</ele>
        <time>2017-06-18T07:40:38Z</time>
      </trkpt>
      <trkpt lat="48.6067" lon="-2.15547">
        <ele>15</ele>
        <time>2017-06-18T07:40:43Z</time>
      </trkpt>
      <trkpt lat="48.60681" lon="-2.15526">
        <ele>14</ele>
        <time>2017-06-18T07:40:48Z</time>
      </trkpt>
      <trkpt lat="48.60692" lon="-2.15506">
        <ele>13</ele>
        <time>2017-06-18T07:40:52Z</time>
      </trkpt>
      <trkpt lat="48.60702" lon="-2.15484">
        <ele>13</ele>
        <time>2017-06-18T07:40:57Z</time>
      </trkpt>
      <trkpt lat="48.6071" lon="-2.15461">
        <ele>14</ele>
        <time>2017-06-18T07:41:03Z</time>
      </trkpt>
      <trkpt lat="48.60718" lon="-2.15435">
        <ele>14</ele>
        <time>2017-06-18T07:41:08Z</time>
      </trkpt>
      <trkpt lat="48.60724" lon="-2.15408">
        <ele>15</ele>
        <time>2017-06-18T07:41:13Z</time>
      </trkpt>
      <trkpt lat="48.60731" lon="-2.15381">
        <ele>15</ele>
        <time>2017-06-18T07:41:18Z</time>
      </trkpt>
      <trkpt lat="48.60738" lon="-2.1535">
        <ele>15</ele>
        <time>2017-06-18T07:41:23Z</time>
      </trkpt>
      <trkpt lat="48.60746" lon="-2.1532">
        <ele>16</ele>
        <time>2017-06-18T07:41:27Z</time>
      </trkpt>
      <trkpt lat="48.60754" lon="-2.1529">
        <ele>16</ele>
        <time>2017-06-18T07:41:33Z</time>
      </trkpt>
      <trkpt lat="48.60762" lon="-2.15263">
        <ele>15</ele>
        <time>2017-06-18T07:41:38Z</time>
      </trkpt>
      <trkpt lat="48.60769" lon="-2.1524">
        <ele>15</ele>
        <time>2017-06-18T07:41:42Z</time>
      </trkpt>
      <trkpt lat="48.60774" lon="-2.15226">
        <ele>16</ele>
        <time>2017-06-18T07:41:48Z</time>
      </trkpt>
      <trkpt lat="48.60779" lon="-2.1521">
        <ele>17</ele>
        <time>2017-06-18T07:41:53Z</time>
      </trkpt>
      <trkpt lat="48.60788" lon="-2.15195">
        <ele>17</ele>
        <time>2017-06-18T07:41:58Z</time>
      </trkpt>
      <trkpt lat="48.608" lon="-2.15183">
        <ele>17</ele>
        <time>2017-06-18T07:42:02Z</time>
      </trkpt>
      <trkpt lat="48.60812" lon="-2.15172">
        <ele>16</ele>
        <time>2017-06-18T07:42:08Z</time>
      </trkpt>
      <trkpt lat="48.60831" lon="-2.15152">
        <ele>17</ele>
        <time>2017-06-18T07:42:16Z</time>
      </trkpt>
      <trkpt lat="48.60836" lon="-2.15147">
        <ele>18</ele>
        <time>2017-06-18T07:42:18Z</time>
      </trkpt>
      <trkpt lat="48.60852" lon="-2.15128">
        <ele>19</ele>
        <time>2017-06-18T07:42:24Z</time>
      </trkpt>
      <trkpt lat="48.60859" lon="-2.15121">
        <ele>20</ele>
        <time>2017-06-18T07:42:28Z</time>
      </trkpt>
      <trkpt lat="48.6087" lon="-2.15104">
        <ele>20</ele>
        <time>2017-06-18T07:42:34Z</time>
      </trkpt>
      <trkpt lat="48.60877" lon="-2.15092">
        <ele>20</ele>
        <time>2017-06-18T07:42:37Z</time>
      </trkpt>
      <trkpt lat="48.60886" lon="-2.15078">
        <ele>20</ele>
        <time>2017-06-18T07:42:43Z</time>
      </trkpt>
      <trkpt lat="48.60896" lon="-2.15063">
        <ele>21</ele>
        <time>2017-06-18T07:42:48Z</time>
      </trkpt>
      <trkpt lat="48.60917" lon="-2.15056">
        <ele>23</ele>
        <time>2017-06-18T07:42:56Z</time>
      </trkpt>
      <trkpt lat="48.60923" lon="-2.15058">
        <ele>23</ele>
        <time>2017-06-18T07:42:58Z</time>
      </trkpt>
      <trkpt lat="48.60939" lon="-2.15058">
        <ele>26</ele>
        <time>2017-06-18T07:43:03Z</time>
      </trkpt>
      <trkpt lat="48.60949" lon="-2.15058">
        <ele>29</ele>
        <time>2017-06-18T07:43:07Z</time>
      </trkpt>
      <trkpt lat="48.60956" lon="-2.15059">
        <ele>30</ele>
        <time>2017-06-18T07:43:12Z</time>
      </trkpt>
      <trkpt lat="48.60973" lon="-2.15059">
        <ele>31</ele>
        <time>2017-06-18T07:43:16Z</time>
      </trkpt>
      <trkpt lat="48.6099" lon="-2.15065">
        <ele>31</ele>
        <time>2017-06-18T07:43:22Z</time>
      </trkpt>
      <trkpt lat="48.61009" lon="-2.15071">
        <ele>31</ele>
        <time>2017-06-18T07:43:27Z</time>
      </trkpt>
      <trkpt lat="48.6103" lon="-2.15078">
        <ele>31</ele>
        <time>2017-06-18T07:43:32Z</time>
      </trkpt>
      <trkpt lat="48.61053" lon="-2.1508">
        <ele>32</ele>
        <time>2017-06-18T07:43:37Z</time>
      </trkpt>
      <trkpt lat="48.61078" lon="-2.1508">
        <ele>31</ele>
        <time>2017-06-18T07:43:42Z</time>
      </trkpt>
      <trkpt lat="48.61101" lon="-2.15076">
        <ele>32</ele>
        <time>2017-06-18T07:43:47Z</time>
      </trkpt>
      <trkpt lat="48.61128" lon="-2.15067">
        <ele>33</ele>
        <time>2017-06-18T07:43:53Z</time>
      </trkpt>
      <trkpt lat="48.61146" lon="-2.15061">
        <ele>32</ele>
        <time>2017-06-18T07:43:57Z</time>
      </trkpt>
      <trkpt lat="48.61176" lon="-2.15056">
        <ele>30</ele>
        <time>2017-06-18T07:44:03Z</time>
      </trkpt>
      <trkpt lat="48.61199" lon="-2.15049">
        <ele>30</ele>
        <time>2017-06-18T07:44:07Z</time>
      </trkpt>
      <trkpt lat="48.61232" lon="-2.15046">
        <ele>27</ele>
        <time>2017-06-18T07:44:12Z</time>
      </trkpt>
      <trkpt lat="48.61292" lon="-2.15058">
        <ele>26</ele>
        <time>2017-06-18T07:44:19Z</time>
      </trkpt>
      <trkpt lat="48.61315" lon="-2.15064">
        <ele>25</ele>
        <time>2017-06-18T07:44:22Z</time>
      </trkpt>
      <trkpt lat="48.61371" lon="-2.15074">
        <ele>27</ele>
        <time>2017-06-18T07:44:29Z</time>
      </trkpt>
      <trkpt lat="48.61391" lon="-2.15072">
        <ele>27</ele>
        <time>2017-06-18T07:44:32Z</time>
      </trkpt>
      <trkpt lat="48.61423" lon="-2.15063">
        <ele>28</ele>
        <time>2017-06-18T07:44:36Z</time>
      </trkpt>
      <trkpt lat="48.61459" lon="-2.15045">
        <ele>27</ele>
        <time>2017-06-18T07:44:43Z</time>
      </trkpt>
      <trkpt lat="48.61484" lon="-2.15034">
        <ele>25</ele>
        <time>2017-06-18T07:44:47Z</time>
      </trkpt>
      <trkpt lat="48.61531" lon="-2.15004">
        <ele>23</ele>
        <time>2017-06-18T07:44:54Z</time>
      </trkpt>
      <trkpt lat="48.61544" lon="-2.14996">
        <ele>24</ele>
        <time>2017-06-18T07:44:57Z</time>
      </trkpt>
      <trkpt lat="48.61593" lon="-2.14996">
        <ele>23</ele>
        <time>2017-06-18T07:45:05Z</time>
      </trkpt>
      <trkpt lat="48.61604" lon="-2.15005">
        <ele>27</ele>
        <time>2017-06-18T07:45:06Z</time>
      </trkpt>
      <trkpt lat="48.61626" lon="-2.15">
        <ele>23</ele>
        <time>2017-06-18T07:45:12Z</time>
      </trkpt>
      <trkpt lat="48.61639" lon="-2.14967">
        <ele>23</ele>
        <time>2017-06-18T07:45:17Z</time>
      </trkpt>
      <trkpt lat="48.6166" lon="-2.14915">
        <ele>22</ele>
        <time>2017-06-18T07:45:23Z</time>
      </trkpt>
      <trkpt lat="48.61677" lon="-2.14876">
        <ele>23</ele>
        <time>2017-06-18T07:45:28Z</time>
      </trkpt>
      <trkpt lat="48.61687" lon="-2.14853">
        <ele>23</ele>
        <time>2017-06-18T07:45:32Z</time>
      </trkpt>
      <trkpt lat="48.61703" lon="-2.14822">
        <ele>25</ele>
        <time>2017-06-18T07:45:37Z</time>
      </trkpt>
      <trkpt lat="48.61716" lon="-2.14795">
        <ele>26</ele>
        <time>2017-06-18T07:45:41Z</time>
      </trkpt>
      <trkpt lat="48.61728" lon="-2.1477">
        <ele>26</ele>
        <time>2017-06-18T07:45:46Z</time>
      </trkpt>
      <trkpt lat="48.6174" lon="-2.1474">
        <ele>24</ele>
        <time>2017-06-18T07:45:52Z</time>
      </trkpt>
      <trkpt lat="48.61757" lon="-2.14702">
        <ele>22</ele>
        <time>2017-06-18T07:45:57Z</time>
      </trkpt>
      <trkpt lat="48.61773" lon="-2.14664">
        <ele>24</ele>
        <time>2017-06-18T07:46:02Z</time>
      </trkpt>
      <trkpt lat="48.61767" lon="-2.1462">
        <ele>24</ele>
        <time>2017-06-18T07:46:10Z</time>
      </trkpt>
      <trkpt lat="48.61763" lon="-2.14619">
        <ele>23</ele>
        <time>2017-06-18T07:46:11Z</time>
      </trkpt>
      <trkpt lat="48.61728" lon="-2.14606">
        <ele>21</ele>
        <time>2017-06-18T07:46:20Z</time>
      </trkpt>
      <trkpt lat="48.6171" lon="-2.14596">
        <ele>24</ele>
        <time>2017-06-18T07:46:25Z</time>
      </trkpt>
      <trkpt lat="48.61688" lon="-2.14584">
        <ele>26</ele>
        <time>2017-06-18T07:46:29Z</time>
      </trkpt>
      <trkpt lat="48.6168" lon="-2.14578">
        <ele>25</ele>
        <time>2017-06-18T07:46:32Z</time>
      </trkpt>
      <trkpt lat="48.61656" lon="-2.14563">
        <ele>27</ele>
        <time>2017-06-18T07:46:39Z</time>
      </trkpt>
      <trkpt lat="48.61645" lon="-2.14554">
        <ele>28</ele>
        <time>2017-06-18T07:46:42Z</time>
      </trkpt>
      <trkpt lat="48.61624" lon="-2.14538">
        <ele>27</ele>
        <time>2017-06-18T07:46:47Z</time>
      </trkpt>
      <trkpt lat="48.6161" lon="-2.14517">
        <ele>29</ele>
        <time>2017-06-18T07:46:51Z</time>
      </trkpt>
      <trkpt lat="48.61613" lon="-2.14487">
        <ele>29</ele>
        <time>2017-06-18T07:46:56Z</time>
      </trkpt>
      <trkpt lat="48.61628" lon="-2.14455">
        <ele>27</ele>
        <time>2017-06-18T07:47:02Z</time>
      </trkpt>
      <trkpt lat="48.61647" lon="-2.14416">
        <ele>25</ele>
        <time>2017-06-18T07:47:06Z</time>
      </trkpt>
      <trkpt lat="48.61666" lon="-2.14363">
        <ele>20</ele>
        <time>2017-06-18T07:47:12Z</time>
      </trkpt>
      <trkpt lat="48.61679" lon="-2.14299">
        <ele>19</ele>
        <time>2017-06-18T07:47:17Z</time>
      </trkpt>
      <trkpt lat="48.61686" lon="-2.14232">
        <ele>17</ele>
        <time>2017-06-18T07:47:21Z</time>
      </trkpt>
      <trkpt lat="48.61684" lon="-2.14183">
        <ele>15</ele>
        <time>2017-06-18T07:47:27Z</time>
      </trkpt>
      <trkpt lat="48.61681" lon="-2.14178">
        <ele>15</ele>
        <time>2017-06-18T07:47:32Z</time>
      </trkpt>
      <trkpt lat="48.61681" lon="-2.14178">
        <ele>14</ele>
        <time>2017-06-18T07:47:37Z</time>
      </trkpt>
      <trkpt lat="48.61677" lon="-2.14175">
        <ele>14</ele>
        <time>2017-06-18T07:47:39Z</time>
      </trkpt>
      <trkpt lat="48.61671" lon="-2.14131">
        <ele>14</ele>
        <time>2017-06-18T07:47:46Z</time>
      </trkpt>
      <trkpt lat="48.61662" lon="-2.14093">
        <ele>15</ele>
        <time>2017-06-18T07:47:50Z</time>
      </trkpt>
      <trkpt lat="48.61651" lon="-2.14047">
        <ele>17</ele>
        <time>2017-06-18T07:47:55Z</time>
      </trkpt>
      <trkpt lat="48.6164" lon="-2.14002">
        <ele>16</ele>
        <time>2017-06-18T07:48:00Z</time>
      </trkpt>
      <trkpt lat="48.6163" lon="-2.13959">
        <ele>17</ele>
        <time>2017-06-18T07:48:05Z</time>
      </trkpt>
      <trkpt lat="48.61619" lon="-2.13913">
        <ele>18</ele>
        <time>2017-06-18T07:48:09Z</time>
      </trkpt>
      <trkpt lat="48.61608" lon="-2.13865">
        <ele>17</ele>
        <time>2017-06-18T07:48:14Z</time>
      </trkpt>
      <trkpt lat="48.61596" lon="-2.13812">
        <ele>15</ele>
        <time>2017-06-18T07:48:19Z</time>
      </trkpt>
      <trkpt lat="48.61584" lon="-2.13758">
        <ele>14</ele>
        <time>2017-06-18T07:48:24Z</time>
      </trkpt>
      <trkpt lat="48.61573" lon="-2.13711">
        <ele>14</ele>
        <time>2017-06-18T07:48:29Z</time>
      </trkpt>
      <trkpt lat="48.6158" lon="-2.1368">
        <ele>14</ele>
        <time>2017-06-18T07:48:35Z</time>
      </trkpt>
      <trkpt lat="48.61615" lon="-2.13634">
        <ele>12</ele>
        <time>2017-06-18T07:48:41Z</time>
      </trkpt>
      <trkpt lat="48.61632" lon="-2.13613">
        <ele>12</ele>
        <time>2017-06-18T07:48:44Z</time>
      </trkpt>
      <trkpt lat="48.61661" lon="-2.13579">
        <ele>12</ele>
        <time>2017-06-18T07:48:50Z</time>
      </trkpt>
      <trkpt lat="48.61692" lon="-2.13553">
        <ele>12</ele>
        <time>2017-06-18T07:48:54Z</time>
      </trkpt>
      <trkpt lat="48.61744" lon="-2.13548">
        <ele>14</ele>
        <time>2017-06-18T07:49:03Z</time>
      </trkpt>
      <trkpt lat="48.61757" lon="-2.13555">
        <ele>14</ele>
        <time>2017-06-18T07:49:05Z</time>
      </trkpt>
      <trkpt lat="48.61775" lon="-2.13581">
        <ele>12</ele>
        <time>2017-06-18T07:49:09Z</time>
      </trkpt>
      <trkpt lat="48.61789" lon="-2.13629">
        <ele>10</ele>
        <time>2017-06-18T07:49:14Z</time>
      </trkpt>
      <trkpt lat="48.61809" lon="-2.13678">
        <ele>9</ele>
        <time>2017-06-18T07:49:20Z</time>
      </trkpt>
      <trkpt lat="48.61843" lon="-2.13701">
        <ele>10</ele>
        <time>2017-06-18T07:49:24Z</time>
      </trkpt>
      <trkpt lat="48.61916" lon="-2.13721">
        <ele>12</ele>
        <time>2017-06-18T07:49:33Z</time>
      </trkpt>
      <trkpt lat="48.61936" lon="-2.13729">
        <ele>11</ele>
        <time>2017-06-18T07:49:37Z</time>
      </trkpt>
      <trkpt lat="48.61955" lon="-2.13745">
        <ele>13</ele>
        <time>2017-06-18T07:49:39Z</time>
      </trkpt>
      <trkpt lat="48.61995" lon="-2.13785">
        <ele>14</ele>
        <time>2017-06-18T07:49:47Z</time>
      </trkpt>
      <trkpt lat="48.62013" lon="-2.138">
        <ele>15</ele>
        <time>2017-06-18T07:49:49Z</time>
      </trkpt>
      <trkpt lat="48.6207" lon="-2.13814">
        <ele>10</ele>
        <time>2017-06-18T07:49:59Z</time>
      </trkpt>
      <trkpt lat="48.62084" lon="-2.13816">
        <ele>11</ele>
        <time>2017-06-18T07:50:01Z</time>
      </trkpt>
      <trkpt lat="48.62132" lon="-2.13822">
        <ele>9</ele>
        <time>2017-06-18T07:50:09Z</time>
      </trkpt>
      <trkpt lat="48.62149" lon="-2.13824">
        <ele>9</ele>
        <time>2017-06-18T07:50:11Z</time>
      </trkpt>
      <trkpt lat="48.62166" lon="-2.13828">
        <ele>9</ele>
        <time>2017-06-18T07:50:14Z</time>
      </trkpt>
      <trkpt lat="48.62191" lon="-2.13833">
        <ele>9</ele>
        <time>2017-06-18T07:50:19Z</time>
      </trkpt>
      <trkpt lat="48.62228" lon="-2.13846">
        <ele>11</ele>
        <time>2017-06-18T07:50:27Z</time>
      </trkpt>
      <trkpt lat="48.62264" lon="-2.13858">
        <ele>10</ele>
        <time>2017-06-18T07:50:34Z</time>
      </trkpt>
      <trkpt lat="48.62268" lon="-2.13859">
        <ele>10</ele>
        <time>2017-06-18T07:50:35Z</time>
      </trkpt>
      <trkpt lat="48.62292" lon="-2.13864">
        <ele>11</ele>
        <time>2017-06-18T07:50:41Z</time>
      </trkpt>
      <trkpt lat="48.62307" lon="-2.13861">
        <ele>14</ele>
        <time>2017-06-18T07:50:45Z</time>
      </trkpt>
      <trkpt lat="48.62324" lon="-2.13853">
        <ele>16</ele>
        <time>2017-06-18T07:50:50Z</time>
      </trkpt>
      <trkpt lat="48.6234" lon="-2.1384">
        <ele>16</ele>
        <time>2017-06-18T07:50:55Z</time>
      </trkpt>
      <trkpt lat="48.62351" lon="-2.13823">
        <ele>15</ele>
        <time>2017-06-18T07:51:00Z</time>
      </trkpt>
      <trkpt lat="48.6237" lon="-2.13798">
        <ele>17</ele>
        <time>2017-06-18T07:51:09Z</time>
      </trkpt>
      <trkpt lat="48.62372" lon="-2.13795">
        <ele>17</ele>
        <time>2017-06-18T07:51:09Z</time>
      </trkpt>
      <trkpt lat="48.62384" lon="-2.13781">
        <ele>17</ele>
        <time>2017-06-18T07:51:14Z</time>
      </trkpt>
      <trkpt lat="48.62395" lon="-2.13768">
        <ele>18</ele>
        <time>2017-06-18T07:51:19Z</time>
      </trkpt>
      <trkpt lat="48.62406" lon="-2.13755">
        <ele>18</ele>
        <time>2017-06-18T07:51:25Z</time>
      </trkpt>
      <trkpt lat="48.62417" lon="-2.13743">
        <ele>19</ele>
        <time>2017-06-18T07:51:30Z</time>
      </trkpt>
      <trkpt lat="48.62426" lon="-2.13733">
        <ele>19</ele>
        <time>2017-06-18T07:51:35Z</time>
      </trkpt>
      <trkpt lat="48.62436" lon="-2.13722">
        <ele>20</ele>
        <time>2017-06-18T07:51:40Z</time>
      </trkpt>
      <trkpt lat="48.62448" lon="-2.13707">
        <ele>22</ele>
        <time>2017-06-18T07:51:46Z</time>
      </trkpt>
      <trkpt lat="48.62453" lon="-2.13695">
        <ele>23</ele>
        <time>2017-06-18T07:51:50Z</time>
      </trkpt>
      <trkpt lat="48.62442" lon="-2.13686">
        <ele>21</ele>
        <time>2017-06-18T07:51:55Z</time>
      </trkpt>
      <trkpt lat="48.62431" lon="-2.13686">
        <ele>24</ele>
        <time>2017-06-18T07:51:59Z</time>
      </trkpt>
      <trkpt lat="48.62425" lon="-2.1369">
        <ele>25</ele>
        <time>2017-06-18T07:52:04Z</time>
      </trkpt>
      <trkpt lat="48.62422" lon="-2.13686">
        <ele>26</ele>
        <time>2017-06-18T07:52:10Z</time>
      </trkpt>
      <trkpt lat="48.62432" lon="-2.1368">
        <ele>25</ele>
        <time>2017-06-18T07:52:15Z</time>
      </trkpt>
      <trkpt lat="48.62457" lon="-2.13686">
        <ele>23</ele>
        <time>2017-06-18T07:52:21Z</time>
      </trkpt>
      <trkpt lat="48.62458" lon="-2.13687">
        <ele>23</ele>
        <time>2017-06-18T07:52:24Z</time>
      </trkpt>
      <trkpt lat="48.62457" lon="-2.13686">
        <ele>22</ele>
        <time>2017-06-18T07:52:28Z</time>
      </trkpt>
      <trkpt lat="48.62456" lon="-2.13685">
        <ele>20</ele>
        <time>2017-06-18T07:52:33Z</time>
      </trkpt>
      <trkpt lat="48.62456" lon="-2.13685">
        <ele>20</ele>
        <time>2017-06-18T07:52:36Z</time>
      </trkpt>
      <trkpt lat="48.62456" lon="-2.13685">
        <ele>20</ele>
        <time>2017-06-18T07:52:38Z</time>
      </trkpt>
      <trkpt lat="48.62456" lon="-2.13685">
        <ele>20</ele>
        <time>2017-06-18T07:52:42Z</time>
      </trkpt>
      <trkpt lat="48.62456" lon="-2.13685">
        <ele>20</ele>
        <time>2017-06-18T07:52:45Z</time>
      </trkpt>
      <trkpt lat="48.62456" lon="-2.13685">
        <ele>20</ele>
        <time>2017-06-18T07:52:48Z</time>
      </trkpt>
      <trkpt lat="48.62456" lon="-2.13685">
        <ele>20</ele>
        <time>2017-06-18T07:52:51Z</time>
      </trkpt>
      <trkpt lat="48.62456" lon="-2.13685">
        <ele>20</ele>
        <time>2017-06-18T07:52:54Z</time>
      </trkpt>
      <trkpt lat="48.62456" lon="-2.13685">
        <ele>20</ele>
        <time>2017-06-18T07:52:56Z</time>
      </trkpt>
      <trkpt lat="48.62457" lon="-2.13686">
        <ele>20</ele>
        <time>2017-06-18T07:52:59Z</time>
      </trkpt>
      <trkpt lat="48.62469" lon="-2.13687">
        <ele>18</ele>
        <time>2017-06-18T07:53:04Z</time>
      </trkpt>
      <trkpt lat="48.62492" lon="-2.13684">
        <ele>19</ele>
        <time>2017-06-18T07:53:10Z</time>
      </trkpt>
      <trkpt lat="48.62529" lon="-2.13677">
        <ele>20</ele>
        <time>2017-06-18T07:53:17Z</time>
      </trkpt>
      <trkpt lat="48.62538" lon="-2.13675">
        <ele>21</ele>
        <time>2017-06-18T07:53:20Z</time>
      </trkpt>
      <trkpt lat="48.62559" lon="-2.13669">
        <ele>19</ele>
        <time>2017-06-18T07:53:25Z</time>
      </trkpt>
      <trkpt lat="48.62583" lon="-2.13657">
        <ele>16</ele>
        <time>2017-06-18T07:53:31Z</time>
      </trkpt>
      <trkpt lat="48.62603" lon="-2.13654">
        <ele>17</ele>
        <time>2017-06-18T07:53:35Z</time>
      </trkpt>
      <trkpt lat="48.62629" lon="-2.13649">
        <ele>18</ele>
        <time>2017-06-18T07:53:39Z</time>
      </trkpt>
      <trkpt lat="48.62652" lon="-2.13645">
        <ele>19</ele>
        <time>2017-06-18T07:53:45Z</time>
      </trkpt>
      <trkpt lat="48.62675" lon="-2.13638">
        <ele>18</ele>
        <time>2017-06-18T07:53:49Z</time>
      </trkpt>
      <trkpt lat="48.62698" lon="-2.13633">
        <ele>18</ele>
        <time>2017-06-18T07:53:55Z</time>
      </trkpt>
      <trkpt lat="48.62719" lon="-2.13629">
        <ele>18</ele>
        <time>2017-06-18T07:53:59Z</time>
      </trkpt>
      <trkpt lat="48.62726" lon="-2.13614">
        <ele>19</ele>
        <time>2017-06-18T07:54:06Z</time>
      </trkpt>
      <trkpt lat="48.62724" lon="-2.13598">
        <ele>19</ele>
        <time>2017-06-18T07:54:09Z</time>
      </trkpt>
      <trkpt lat="48.62716" lon="-2.13572">
        <ele>19</ele>
        <time>2017-06-18T07:54:14Z</time>
      </trkpt>
      <trkpt lat="48.62706" lon="-2.13543">
        <ele>21</ele>
        <time>2017-06-18T07:54:19Z</time>
      </trkpt>
      <trkpt lat="48.62692" lon="-2.13501">
        <ele>22</ele>
        <time>2017-06-18T07:54:26Z</time>
      </trkpt>
      <trkpt lat="48.62687" lon="-2.13484">
        <ele>23</ele>
        <time>2017-06-18T07:54:30Z</time>
      </trkpt>
      <trkpt lat="48.62681" lon="-2.13456">
        <ele>23</ele>
        <time>2017-06-18T07:54:35Z</time>
      </trkpt>
      <trkpt lat="48.62675" lon="-2.13428">
        <ele>22</ele>
        <time>2017-06-18T07:54:40Z</time>
      </trkpt>
      <trkpt lat="48.62667" lon="-2.13385">
        <ele>21</ele>
        <time>2017-06-18T07:54:47Z</time>
      </trkpt>
      <trkpt lat="48.62665" lon="-2.13374">
        <ele>21</ele>
        <time>2017-06-18T07:54:49Z</time>
      </trkpt>
      <trkpt lat="48.62661" lon="-2.13337">
        <ele>22</ele>
        <time>2017-06-18T07:54:57Z</time>
      </trkpt>
      <trkpt lat="48.62661" lon="-2.13322">
        <ele>20</ele>
        <time>2017-06-18T07:55:00Z</time>
      </trkpt>
      <trkpt lat="48.6266" lon="-2.13292">
        <ele>22</ele>
        <time>2017-06-18T07:55:06Z</time>
      </trkpt>
      <trkpt lat="48.62658" lon="-2.13271">
        <ele>22</ele>
        <time>2017-06-18T07:55:10Z</time>
      </trkpt>
      <trkpt lat="48.62657" lon="-2.13244">
        <ele>23</ele>
        <time>2017-06-18T07:55:14Z</time>
      </trkpt>
      <trkpt lat="48.62655" lon="-2.13217">
        <ele>25</ele>
        <time>2017-06-18T07:55:19Z</time>
      </trkpt>
      <trkpt lat="48.62654" lon="-2.13179">
        <ele>27</ele>
        <time>2017-06-18T07:55:26Z</time>
      </trkpt>
      <trkpt lat="48.62651" lon="-2.13163">
        <ele>27</ele>
        <time>2017-06-18T07:55:29Z</time>
      </trkpt>
      <trkpt lat="48.62645" lon="-2.13137">
        <ele>26</ele>
        <time>2017-06-18T07:55:34Z</time>
      </trkpt>
      <trkpt lat="48.62637" lon="-2.1311">
        <ele>27</ele>
        <time>2017-06-18T07:55:40Z</time>
      </trkpt>
      <trkpt lat="48.62627" lon="-2.13086">
        <ele>26</ele>
        <time>2017-06-18T07:55:45Z</time>
      </trkpt>
      <trkpt lat="48.62616" lon="-2.13066">
        <ele>27</ele>
        <time>2017-06-18T07:55:50Z</time>
      </trkpt>
      <trkpt lat="48.62603" lon="-2.13048">
        <ele>28</ele>
        <time>2017-06-18T07:55:54Z</time>
      </trkpt>
      <trkpt lat="48.62591" lon="-2.13029">
        <ele>28</ele>
        <time>2017-06-18T07:56:00Z</time>
      </trkpt>
      <trkpt lat="48.62579" lon="-2.13014">
        <ele>28</ele>
        <time>2017-06-18T07:56:04Z</time>
      </trkpt>
      <trkpt lat="48.62568" lon="-2.13002">
        <ele>28</ele>
        <time>2017-06-18T07:56:09Z</time>
      </trkpt>
      <trkpt lat="48.62545" lon="-2.13005">
        <ele>29</ele>
        <time>2017-06-18T07:56:19Z</time>
      </trkpt>
      <trkpt lat="48.62542" lon="-2.13005">
        <ele>30</ele>
        <time>2017-06-18T07:56:20Z</time>
      </trkpt>
      <trkpt lat="48.62525" lon="-2.13004">
        <ele>31</ele>
        <time>2017-06-18T07:56:25Z</time>
      </trkpt>
      <trkpt lat="48.62521" lon="-2.13028">
        <ele>31</ele>
        <time>2017-06-18T07:56:29Z</time>
      </trkpt>
      <trkpt lat="48.62518" lon="-2.13068">
        <ele>32</ele>
        <time>2017-06-18T07:56:36Z</time>
      </trkpt>
      <trkpt lat="48.62515" lon="-2.13085">
        <ele>32</ele>
        <time>2017-06-18T07:56:39Z</time>
      </trkpt>
      <trkpt lat="48.62508" lon="-2.13111">
        <ele>32</ele>
        <time>2017-06-18T07:56:44Z</time>
      </trkpt>
      <trkpt lat="48.62509" lon="-2.1314">
        <ele>33</ele>
        <time>2017-06-18T07:56:51Z</time>
      </trkpt>
      <trkpt lat="48.6252" lon="-2.13179">
        <ele>35</ele>
        <time>2017-06-18T07:56:57Z</time>
      </trkpt>
      <trkpt lat="48.62528" lon="-2.13223">
        <ele>34</ele>
        <time>2017-06-18T07:57:01Z</time>
      </trkpt>
      <trkpt lat="48.62534" lon="-2.13247">
        <ele>33</ele>
        <time>2017-06-18T07:57:05Z</time>
      </trkpt>
      <trkpt lat="48.62546" lon="-2.13292">
        <ele>33</ele>
        <time>2017-06-18T07:57:10Z</time>
      </trkpt>
      <trkpt lat="48.62553" lon="-2.13351">
        <ele>30</ele>
        <time>2017-06-18T07:57:17Z</time>
      </trkpt>
      <trkpt lat="48.62545" lon="-2.13375">
        <ele>29</ele>
        <time>2017-06-18T07:57:20Z</time>
      </trkpt>
      <trkpt lat="48.62534" lon="-2.13407">
        <ele>29</ele>
        <time>2017-06-18T07:57:24Z</time>
      </trkpt>
      <trkpt lat="48.62538" lon="-2.13428">
        <ele>27</ele>
        <time>2017-06-18T07:57:30Z</time>
      </trkpt>
      <trkpt lat="48.6251" lon="-2.13443">
        <ele>27</ele>
        <time>2017-06-18T07:57:37Z</time>
      </trkpt>
      <trkpt lat="48.62502" lon="-2.13446">
        <ele>28</ele>
        <time>2017-06-18T07:57:40Z</time>
      </trkpt>
      <trkpt lat="48.62477" lon="-2.1345">
        <ele>26</ele>
        <time>2017-06-18T07:57:46Z</time>
      </trkpt>
      <trkpt lat="48.62454" lon="-2.13455">
        <ele>27</ele>
        <time>2017-06-18T07:57:51Z</time>
      </trkpt>
      <trkpt lat="48.62436" lon="-2.13459">
        <ele>28</ele>
        <time>2017-06-18T07:57:55Z</time>
      </trkpt>
      <trkpt lat="48.62406" lon="-2.13465">
        <ele>29</ele>
        <time>2017-06-18T07:58:01Z</time>
      </trkpt>
      <trkpt lat="48.62379" lon="-2.13472">
        <ele>30</ele>
        <time>2017-06-18T07:58:08Z</time>
      </trkpt>
      <trkpt lat="48.62381" lon="-2.13504">
        <ele>31</ele>
        <time>2017-06-18T07:58:14Z</time>
      </trkpt>
      <trkpt lat="48.62381" lon="-2.13511">
        <ele>31</ele>
        <time>2017-06-18T07:58:14Z</time>
      </trkpt>
      <trkpt lat="48.62381" lon="-2.13546">
        <ele>30</ele>
        <time>2017-06-18T07:58:20Z</time>
      </trkpt>
      <trkpt lat="48.62381" lon="-2.13589">
        <ele>29</ele>
        <time>2017-06-18T07:58:26Z</time>
      </trkpt>
      <trkpt lat="48.62381" lon="-2.13618">
        <ele>29</ele>
        <time>2017-06-18T07:58:30Z</time>
      </trkpt>
      <trkpt lat="48.62378" lon="-2.13666">
        <ele>29</ele>
        <time>2017-06-18T07:58:37Z</time>
      </trkpt>
      <trkpt lat="48.62378" lon="-2.1367">
        <ele>29</ele>
        <time>2017-06-18T07:58:40Z</time>
      </trkpt>
      <trkpt lat="48.62373" lon="-2.13677">
        <ele>27</ele>
        <time>2017-06-18T07:58:45Z</time>
      </trkpt>
      <trkpt lat="48.62364" lon="-2.13676">
        <ele>29</ele>
        <time>2017-06-18T07:58:49Z</time>
      </trkpt>
      <trkpt lat="48.62352" lon="-2.13673">
        <ele>29</ele>
        <time>2017-06-18T07:58:54Z</time>
      </trkpt>
      <trkpt lat="48.62339" lon="-2.13665">
        <ele>31</ele>
        <time>2017-06-18T07:59:00Z</time>
      </trkpt>
      <trkpt lat="48.62327" lon="-2.13654">
        <ele>32</ele>
        <time>2017-06-18T07:59:05Z</time>
      </trkpt>
      <trkpt lat="48.62314" lon="-2.13646">
        <ele>34</ele>
        <time>2017-06-18T07:59:09Z</time>
      </trkpt>
      <trkpt lat="48.62302" lon="-2.13637">
        <ele>33</ele>
        <time>2017-06-18T07:59:15Z</time>
      </trkpt>
      <trkpt lat="48.62289" lon="-2.13629">
        <ele>33</ele>
        <time>2017-06-18T07:59:20Z</time>
      </trkpt>
      <trkpt lat="48.62278" lon="-2.13621">
        <ele>32</ele>
        <time>2017-06-18T07:59:24Z</time>
      </trkpt>
      <trkpt lat="48.62268" lon="-2.13614">
        <ele>31</ele>
        <time>2017-06-18T07:59:29Z</time>
      </trkpt>
      <trkpt lat="48.62257" lon="-2.13604">
        <ele>33</ele>
        <time>2017-06-18T07:59:35Z</time>
      </trkpt>
      <trkpt lat="48.62243" lon="-2.13592">
        <ele>33</ele>
        <time>2017-06-18T07:59:41Z</time>
      </trkpt>
      <trkpt lat="48.62232" lon="-2.13582">
        <ele>35</ele>
        <time>2017-06-18T07:59:46Z</time>
      </trkpt>
      <trkpt lat="48.62224" lon="-2.13573">
        <ele>35</ele>
        <time>2017-06-18T07:59:50Z</time>
      </trkpt>
      <trkpt lat="48.62204" lon="-2.13548">
        <ele>33</ele>
        <time>2017-06-18T07:59:58Z</time>
      </trkpt>
      <trkpt lat="48.62202" lon="-2.13545">
        <ele>34</ele>
        <time>2017-06-18T07:59:59Z</time>
      </trkpt>
      <trkpt lat="48.62188" lon="-2.13527">
        <ele>34</ele>
        <time>2017-06-18T08:00:05Z</time>
      </trkpt>
      <trkpt lat="48.62179" lon="-2.13516">
        <ele>33</ele>
        <time>2017-06-18T08:00:10Z</time>
      </trkpt>
      <trkpt lat="48.62155" lon="-2.13481">
        <ele>32</ele>
        <time>2017-06-18T08:00:16Z</time>
      </trkpt>
      <trkpt lat="48.62126" lon="-2.1344">
        <ele>31</ele>
        <time>2017-06-18T08:00:22Z</time>
      </trkpt>
      <trkpt lat="48.62113" lon="-2.1342">
        <ele>31</ele>
        <time>2017-06-18T08:00:25Z</time>
      </trkpt>
      <trkpt lat="48.62088" lon="-2.13388">
        <ele>30</ele>
        <time>2017-06-18T08:00:30Z</time>
      </trkpt>
      <trkpt lat="48.62056" lon="-2.13356">
        <ele>29</ele>
        <time>2017-06-18T08:00:34Z</time>
      </trkpt>
      <trkpt lat="48.62022" lon="-2.13323">
        <ele>27</ele>
        <time>2017-06-18T08:00:40Z</time>
      </trkpt>
      <trkpt lat="48.61992" lon="-2.13292">
        <ele>25</ele>
        <time>2017-06-18T08:00:48Z</time>
      </trkpt>
      <trkpt lat="48.61987" lon="-2.13288">
        <ele>24</ele>
        <time>2017-06-18T08:00:49Z</time>
      </trkpt>
      <trkpt lat="48.61971" lon="-2.13271">
        <ele>24</ele>
        <time>2017-06-18T08:00:54Z</time>
      </trkpt>
      <trkpt lat="48.61963" lon="-2.13264">
        <ele>25</ele>
        <time>2017-06-18T08:00:59Z</time>
      </trkpt>
      <trkpt lat="48.61962" lon="-2.13265">
        <ele>26</ele>
        <time>2017-06-18T08:01:04Z</time>
      </trkpt>
      <trkpt lat="48.61961" lon="-2.13262">
        <ele>27</ele>
        <time>2017-06-18T08:01:08Z</time>
      </trkpt>
      <trkpt lat="48.61955" lon="-2.13273">
        <ele>21</ele>
        <time>2017-06-18T08:01:15Z</time>
      </trkpt>
      <trkpt lat="48.61953" lon="-2.13277">
        <ele>20</ele>
        <time>2017-06-18T08:01:17Z</time>
      </trkpt>
      <trkpt lat="48.61944" lon="-2.13296">
        <ele>19</ele>
        <time>2017-06-18T08:01:24Z</time>
      </trkpt>
      <trkpt lat="48.61937" lon="-2.1331">
        <ele>18</ele>
        <time>2017-06-18T08:01:29Z</time>
      </trkpt>
      <trkpt lat="48.61924" lon="-2.13325">
        <ele>17</ele>
        <time>2017-06-18T08:01:32Z</time>
      </trkpt>
      <trkpt lat="48.61895" lon="-2.13337">
        <ele>16</ele>
        <time>2017-06-18T08:01:41Z</time>
      </trkpt>
      <trkpt lat="48.61882" lon="-2.13345">
        <ele>19</ele>
        <time>2017-06-18T08:01:47Z</time>
      </trkpt>
      <trkpt lat="48.61882" lon="-2.13346">
        <ele>19</ele>
        <time>2017-06-18T08:01:48Z</time>
      </trkpt>
      <trkpt lat="48.61876" lon="-2.13348">
        <ele>19</ele>
        <time>2017-06-18T08:01:53Z</time>
      </trkpt>
      <trkpt lat="48.61874" lon="-2.1335">
        <ele>19</ele>
        <time>2017-06-18T08:01:57Z</time>
      </trkpt>
      <trkpt lat="48.61875" lon="-2.13352">
        <ele>21</ele>
        <time>2017-06-18T08:02:04Z</time>
      </trkpt>
      <trkpt lat="48.61875" lon="-2.13351">
        <ele>20</ele>
        <time>2017-06-18T08:02:06Z</time>
      </trkpt>
      <trkpt lat="48.61868" lon="-2.13347">
        <ele>17</ele>
        <time>2017-06-18T08:02:08Z</time>
      </trkpt>
      <trkpt lat="48.61845" lon="-2.13323">
        <ele>17</ele>
        <time>2017-06-18T08:02:15Z</time>
      </trkpt>
      <trkpt lat="48.61836" lon="-2.1331">
        <ele>19</ele>
        <time>2017-06-18T08:02:20Z</time>
      </trkpt>
      <trkpt lat="48.61829" lon="-2.133">
        <ele>19</ele>
        <time>2017-06-18T08:02:24Z</time>
      </trkpt>
      <trkpt lat="48.61825" lon="-2.13286">
        <ele>16</ele>
        <time>2017-06-18T08:02:30Z</time>
      </trkpt>
      <trkpt lat="48.61821" lon="-2.13279">
        <ele>15</ele>
        <time>2017-06-18T08:02:33Z</time>
      </trkpt>
      <trkpt lat="48.61816" lon="-2.13265">
        <ele>15</ele>
        <time>2017-06-18T08:02:42Z</time>
      </trkpt>
      <trkpt lat="48.61811" lon="-2.1326">
        <ele>15</ele>
        <time>2017-06-18T08:02:45Z</time>
      </trkpt>
      <trkpt lat="48.61802" lon="-2.1325">
        <ele>14</ele>
        <time>2017-06-18T08:02:49Z</time>
      </trkpt>
      <trkpt lat="48.61796" lon="-2.13236">
        <ele>15</ele>
        <time>2017-06-18T08:02:53Z</time>
      </trkpt>
      <trkpt lat="48.61786" lon="-2.13205">
        <ele>19</ele>
        <time>2017-06-18T08:02:59Z</time>
      </trkpt>
      <trkpt lat="48.61771" lon="-2.13171">
        <ele>14</ele>
        <time>2017-06-18T08:03:08Z</time>
      </trkpt>
      <trkpt lat="48.61757" lon="-2.13146">
        <ele>14</ele>
        <time>2017-06-18T08:03:13Z</time>
      </trkpt>
      <trkpt lat="48.61754" lon="-2.13141">
        <ele>14</ele>
        <time>2017-06-18T08:03:14Z</time>
      </trkpt>
      <trkpt lat="48.61738" lon="-2.13116">
        <ele>18</ele>
        <time>2017-06-18T08:03:18Z</time>
      </trkpt>
      <trkpt lat="48.61725" lon="-2.13095">
        <ele>20</ele>
        <time>2017-06-18T08:03:23Z</time>
      </trkpt>
      <trkpt lat="48.61715" lon="-2.1308">
        <ele>22</ele>
        <time>2017-06-18T08:03:29Z</time>
      </trkpt>
      <trkpt lat="48.61705" lon="-2.13064">
        <ele>20</ele>
        <time>2017-06-18T08:03:33Z</time>
      </trkpt>
      <trkpt lat="48.61685" lon="-2.13032">
        <ele>20</ele>
        <time>2017-06-18T08:03:39Z</time>
      </trkpt>
      <trkpt lat="48.61663" lon="-2.13">
        <ele>18</ele>
        <time>2017-06-18T08:03:43Z</time>
      </trkpt>
      <trkpt lat="48.61634" lon="-2.12943">
        <ele>12</ele>
        <time>2017-06-18T08:03:52Z</time>
      </trkpt>
      <trkpt lat="48.61629" lon="-2.12929">
        <ele>12</ele>
        <time>2017-06-18T08:03:55Z</time>
      </trkpt>
      <trkpt lat="48.61621" lon="-2.12909">
        <ele>12</ele>
        <time>2017-06-18T08:04:03Z</time>
      </trkpt>
      <trkpt lat="48.6162" lon="-2.12906">
        <ele>12</ele>
        <time>2017-06-18T08:04:04Z</time>
      </trkpt>
      <trkpt lat="48.61609" lon="-2.12864">
        <ele>11</ele>
        <time>2017-06-18T08:04:09Z</time>
      </trkpt>
      <trkpt lat="48.61594" lon="-2.12835">
        <ele>10</ele>
        <time>2017-06-18T08:04:13Z</time>
      </trkpt>
      <trkpt lat="48.61557" lon="-2.12813">
        <ele>7</ele>
        <time>2017-06-18T08:04:19Z</time>
      </trkpt>
      <trkpt lat="48.61506" lon="-2.12782">
        <ele>6</ele>
        <time>2017-06-18T08:04:27Z</time>
      </trkpt>
      <trkpt lat="48.61492" lon="-2.12769">
        <ele>7</ele>
        <time>2017-06-18T08:04:29Z</time>
      </trkpt>
      <trkpt lat="48.61449" lon="-2.1273">
        <ele>8</ele>
        <time>2017-06-18T08:04:35Z</time>
      </trkpt>
      <trkpt lat="48.61424" lon="-2.12692">
        <ele>8</ele>
        <time>2017-06-18T08:04:41Z</time>
      </trkpt>
      <trkpt lat="48.61419" lon="-2.12683">
        <ele>6</ele>
        <time>2017-06-18T08:04:44Z</time>
      </trkpt>
      <trkpt lat="48.61404" lon="-2.1266">
        <ele>7</ele>
        <time>2017-06-18T08:04:48Z</time>
      </trkpt>
      <trkpt lat="48.61388" lon="-2.12632">
        <ele>9</ele>
        <time>2017-06-18T08:04:54Z</time>
      </trkpt>
      <trkpt lat="48.61378" lon="-2.12617">
        <ele>9</ele>
        <time>2017-06-18T08:04:58Z</time>
      </trkpt>
      <trkpt lat="48.61362" lon="-2.12589">
        <ele>11</ele>
        <time>2017-06-18T08:05:07Z</time>
      </trkpt>
      <trkpt lat="48.61355" lon="-2.12578">
        <ele>10</ele>
        <time>2017-06-18T08:05:11Z</time>
      </trkpt>
      <trkpt lat="48.61348" lon="-2.12568">
        <ele>10</ele>
        <time>2017-06-18T08:05:13Z</time>
      </trkpt>
      <trkpt lat="48.61337" lon="-2.1255">
        <ele>11</ele>
        <time>2017-06-18T08:05:18Z</time>
      </trkpt>
      <trkpt lat="48.61322" lon="-2.12525">
        <ele>13</ele>
        <time>2017-06-18T08:05:26Z</time>
      </trkpt>
      <trkpt lat="48.61314" lon="-2.1251">
        <ele>13</ele>
        <time>2017-06-18T08:05:30Z</time>
      </trkpt>
      <trkpt lat="48.61308" lon="-2.12499">
        <ele>13</ele>
        <time>2017-06-18T08:05:33Z</time>
      </trkpt>
      <trkpt lat="48.61298" lon="-2.1248">
        <ele>17</ele>
        <time>2017-06-18T08:05:42Z</time>
      </trkpt>
      <trkpt lat="48.61296" lon="-2.12477">
        <ele>17</ele>
        <time>2017-06-18T08:05:43Z</time>
      </trkpt>
      <trkpt lat="48.6129" lon="-2.12467">
        <ele>18</ele>
        <time>2017-06-18T08:05:48Z</time>
      </trkpt>
      <trkpt lat="48.61284" lon="-2.12457">
        <ele>17</ele>
        <time>2017-06-18T08:05:53Z</time>
      </trkpt>
      <trkpt lat="48.61271" lon="-2.12436">
        <ele>19</ele>
        <time>2017-06-18T08:06:03Z</time>
      </trkpt>
      <trkpt lat="48.61266" lon="-2.12425">
        <ele>19</ele>
        <time>2017-06-18T08:06:06Z</time>
      </trkpt>
      <trkpt lat="48.61263" lon="-2.1242">
        <ele>20</ele>
        <time>2017-06-18T08:06:08Z</time>
      </trkpt>
      <trkpt lat="48.61256" lon="-2.12411">
        <ele>18</ele>
        <time>2017-06-18T08:06:14Z</time>
      </trkpt>
      <trkpt lat="48.61248" lon="-2.12401">
        <ele>20</ele>
        <time>2017-06-18T08:06:20Z</time>
      </trkpt>
      <trkpt lat="48.61242" lon="-2.12392">
        <ele>19</ele>
        <time>2017-06-18T08:06:23Z</time>
      </trkpt>
      <trkpt lat="48.61229" lon="-2.12369">
        <ele>20</ele>
        <time>2017-06-18T08:06:32Z</time>
      </trkpt>
      <trkpt lat="48.61226" lon="-2.12363">
        <ele>21</ele>
        <time>2017-06-18T08:06:34Z</time>
      </trkpt>
      <trkpt lat="48.61216" lon="-2.12339">
        <ele>26</ele>
        <time>2017-06-18T08:06:41Z</time>
      </trkpt>
      <trkpt lat="48.61212" lon="-2.12335">
        <ele>26</ele>
        <time>2017-06-18T08:06:43Z</time>
      </trkpt>
      <trkpt lat="48.61201" lon="-2.12322">
        <ele>29</ele>
        <time>2017-06-18T08:06:50Z</time>
      </trkpt>
      <trkpt lat="48.61194" lon="-2.1232">
        <ele>29</ele>
        <time>2017-06-18T08:06:53Z</time>
      </trkpt>
      <trkpt lat="48.61182" lon="-2.12321">
        <ele>29</ele>
        <time>2017-06-18T08:06:58Z</time>
      </trkpt>
      <trkpt lat="48.61169" lon="-2.12326">
        <ele>27</ele>
        <time>2017-06-18T08:07:04Z</time>
      </trkpt>
      <trkpt lat="48.61157" lon="-2.12331">
        <ele>27</ele>
        <time>2017-06-18T08:07:09Z</time>
      </trkpt>
      <trkpt lat="48.61133" lon="-2.12345">
        <ele>25</ele>
        <time>2017-06-18T08:07:18Z</time>
      </trkpt>
      <trkpt lat="48.61129" lon="-2.12347">
        <ele>25</ele>
        <time>2017-06-18T08:07:18Z</time>
      </trkpt>
      <trkpt lat="48.61105" lon="-2.1235">
        <ele>24</ele>
        <time>2017-06-18T08:07:23Z</time>
      </trkpt>
      <trkpt lat="48.61083" lon="-2.12324">
        <ele>24</ele>
        <time>2017-06-18T08:07:33Z</time>
      </trkpt>
      <trkpt lat="48.61076" lon="-2.12317">
        <ele>25</ele>
        <time>2017-06-18T08:07:34Z</time>
      </trkpt>
      <trkpt lat="48.61064" lon="-2.12306">
        <ele>25</ele>
        <time>2017-06-18T08:07:37Z</time>
      </trkpt>
      <trkpt lat="48.61034" lon="-2.12281">
        <ele>24</ele>
        <time>2017-06-18T08:07:43Z</time>
      </trkpt>
      <trkpt lat="48.61016" lon="-2.12259">
        <ele>24</ele>
        <time>2017-06-18T08:07:48Z</time>
      </trkpt>
      <trkpt lat="48.60997" lon="-2.12233">
        <ele>25</ele>
        <time>2017-06-18T08:07:53Z</time>
      </trkpt>
      <trkpt lat="48.60978" lon="-2.12208">
        <ele>27</ele>
        <time>2017-06-18T08:07:57Z</time>
      </trkpt>
      <trkpt lat="48.60955" lon="-2.12186">
        <ele>28</ele>
        <time>2017-06-18T08:08:02Z</time>
      </trkpt>
      <trkpt lat="48.60928" lon="-2.12163">
        <ele>29</ele>
        <time>2017-06-18T08:08:08Z</time>
      </trkpt>
      <trkpt lat="48.60901" lon="-2.12129">
        <ele>27</ele>
        <time>2017-06-18T08:08:12Z</time>
      </trkpt>
      <trkpt lat="48.60887" lon="-2.12078">
        <ele>26</ele>
        <time>2017-06-18T08:08:19Z</time>
      </trkpt>
      <trkpt lat="48.60875" lon="-2.12038">
        <ele>24</ele>
        <time>2017-06-18T08:08:24Z</time>
      </trkpt>
      <trkpt lat="48.60853" lon="-2.12024">
        <ele>22</ele>
        <time>2017-06-18T08:08:28Z</time>
      </trkpt>
      <trkpt lat="48.60825" lon="-2.12027">
        <ele>22</ele>
        <time>2017-06-18T08:08:32Z</time>
      </trkpt>
      <trkpt lat="48.60811" lon="-2.12006">
        <ele>22</ele>
        <time>2017-06-18T08:08:41Z</time>
      </trkpt>
      <trkpt lat="48.60812" lon="-2.12001">
        <ele>21</ele>
        <time>2017-06-18T08:08:43Z</time>
      </trkpt>
      <trkpt lat="48.60798" lon="-2.11964">
        <ele>24</ele>
        <time>2017-06-18T08:08:50Z</time>
      </trkpt>
      <trkpt lat="48.60793" lon="-2.11953">
        <ele>23</ele>
        <time>2017-06-18T08:08:52Z</time>
      </trkpt>
      <trkpt lat="48.60777" lon="-2.11915">
        <ele>24</ele>
        <time>2017-06-18T08:08:58Z</time>
      </trkpt>
      <trkpt lat="48.60767" lon="-2.11893">
        <ele>25</ele>
        <time>2017-06-18T08:09:02Z</time>
      </trkpt>
      <trkpt lat="48.60752" lon="-2.11867">
        <ele>27</ele>
        <time>2017-06-18T08:09:07Z</time>
      </trkpt>
      <trkpt lat="48.60736" lon="-2.11849">
        <ele>27</ele>
        <time>2017-06-18T08:09:12Z</time>
      </trkpt>
      <trkpt lat="48.60717" lon="-2.11836">
        <ele>29</ele>
        <time>2017-06-18T08:09:17Z</time>
      </trkpt>
      <trkpt lat="48.60697" lon="-2.11824">
        <ele>30</ele>
        <time>2017-06-18T08:09:22Z</time>
      </trkpt>
      <trkpt lat="48.6068" lon="-2.11813">
        <ele>31</ele>
        <time>2017-06-18T08:09:27Z</time>
      </trkpt>
      <trkpt lat="48.60667" lon="-2.11804">
        <ele>31</ele>
        <time>2017-06-18T08:09:33Z</time>
      </trkpt>
      <trkpt lat="48.60655" lon="-2.11794">
        <ele>32</ele>
        <time>2017-06-18T08:09:37Z</time>
      </trkpt>
      <trkpt lat="48.60643" lon="-2.11782">
        <ele>34</ele>
        <time>2017-06-18T08:09:43Z</time>
      </trkpt>
      <trkpt lat="48.60631" lon="-2.11769">
        <ele>34</ele>
        <time>2017-06-18T08:09:48Z</time>
      </trkpt>
      <trkpt lat="48.6062" lon="-2.11756">
        <ele>35</ele>
        <time>2017-06-18T08:09:52Z</time>
      </trkpt>
      <trkpt lat="48.60608" lon="-2.11742">
        <ele>35</ele>
        <time>2017-06-18T08:09:57Z</time>
      </trkpt>
      <trkpt lat="48.60593" lon="-2.11724">
        <ele>35</ele>
        <time>2017-06-18T08:10:04Z</time>
      </trkpt>
      <trkpt lat="48.60582" lon="-2.11708">
        <ele>35</ele>
        <time>2017-06-18T08:10:07Z</time>
      </trkpt>
      <trkpt lat="48.60563" lon="-2.11682">
        <ele>33</ele>
        <time>2017-06-18T08:10:12Z</time>
      </trkpt>
      <trkpt lat="48.60542" lon="-2.11647">
        <ele>33</ele>
        <time>2017-06-18T08:10:18Z</time>
      </trkpt>
      <trkpt lat="48.60517" lon="-2.11609">
        <ele>32</ele>
        <time>2017-06-18T08:10:23Z</time>
      </trkpt>
      <trkpt lat="48.60476" lon="-2.11547">
        <ele>30</ele>
        <time>2017-06-18T08:10:30Z</time>
      </trkpt>
      <trkpt lat="48.6045" lon="-2.11508">
        <ele>27</ele>
        <time>2017-06-18T08:10:34Z</time>
      </trkpt>
      <trkpt lat="48.6043" lon="-2.11471">
        <ele>27</ele>
        <time>2017-06-18T08:10:38Z</time>
      </trkpt>
      <trkpt lat="48.60412" lon="-2.11359">
        <ele>26</ele>
        <time>2017-06-18T08:10:46Z</time>
      </trkpt>
      <trkpt lat="48.60411" lon="-2.11349">
        <ele>27</ele>
        <time>2017-06-18T08:10:47Z</time>
      </trkpt>
      <trkpt lat="48.60396" lon="-2.11307">
        <ele>27</ele>
        <time>2017-06-18T08:10:52Z</time>
      </trkpt>
      <trkpt lat="48.60383" lon="-2.11272">
        <ele>24</ele>
        <time>2017-06-18T08:10:57Z</time>
      </trkpt>
      <trkpt lat="48.60362" lon="-2.11211">
        <ele>29</ele>
        <time>2017-06-18T08:11:05Z</time>
      </trkpt>
      <trkpt lat="48.60354" lon="-2.11187">
        <ele>27</ele>
        <time>2017-06-18T08:11:08Z</time>
      </trkpt>
      <trkpt lat="48.60347" lon="-2.11162">
        <ele>27</ele>
        <time>2017-06-18T08:11:14Z</time>
      </trkpt>
      <trkpt lat="48.60347" lon="-2.11145">
        <ele>28</ele>
        <time>2017-06-18T08:11:18Z</time>
      </trkpt>
      <trkpt lat="48.60344" lon="-2.11109">
        <ele>29</ele>
        <time>2017-06-18T08:11:24Z</time>
      </trkpt>
      <trkpt lat="48.60337" lon="-2.11091">
        <ele>28</ele>
        <time>2017-06-18T08:11:31Z</time>
      </trkpt>
      <trkpt lat="48.60332" lon="-2.11092">
        <ele>28</ele>
        <time>2017-06-18T08:11:33Z</time>
      </trkpt>
      <trkpt lat="48.60309" lon="-2.11104">
        <ele>30</ele>
        <time>2017-06-18T08:11:39Z</time>
      </trkpt>
      <trkpt lat="48.60292" lon="-2.11112">
        <ele>31</ele>
        <time>2017-06-18T08:11:42Z</time>
      </trkpt>
      <trkpt lat="48.6027" lon="-2.11124">
        <ele>32</ele>
        <time>2017-06-18T08:11:47Z</time>
      </trkpt>
      <trkpt lat="48.60246" lon="-2.11134">
        <ele>33</ele>
        <time>2017-06-18T08:11:52Z</time>
      </trkpt>
      <trkpt lat="48.60219" lon="-2.11144">
        <ele>32</ele>
        <time>2017-06-18T08:11:57Z</time>
      </trkpt>
      <trkpt lat="48.60184" lon="-2.11157">
        <ele>32</ele>
        <time>2017-06-18T08:12:04Z</time>
      </trkpt>
      <trkpt lat="48.60164" lon="-2.1116">
        <ele>35</ele>
        <time>2017-06-18T08:12:08Z</time>
      </trkpt>
      <trkpt lat="48.60132" lon="-2.11165">
        <ele>37</ele>
        <time>2017-06-18T08:12:14Z</time>
      </trkpt>
      <trkpt lat="48.60116" lon="-2.11166">
        <ele>37</ele>
        <time>2017-06-18T08:12:17Z</time>
      </trkpt>
      <trkpt lat="48.60071" lon="-2.11174">
        <ele>36</ele>
        <time>2017-06-18T08:12:26Z</time>
      </trkpt>
      <trkpt lat="48.6006" lon="-2.11176">
        <ele>36</ele>
        <time>2017-06-18T08:12:28Z</time>
      </trkpt>
      <trkpt lat="48.60035" lon="-2.11182">
        <ele>35</ele>
        <time>2017-06-18T08:12:32Z</time>
      </trkpt>
      <trkpt lat="48.60024" lon="-2.11152">
        <ele>37</ele>
        <time>2017-06-18T08:12:39Z</time>
      </trkpt>
      <trkpt lat="48.60024" lon="-2.11137">
        <ele>37</ele>
        <time>2017-06-18T08:12:42Z</time>
      </trkpt>
      <trkpt lat="48.60021" lon="-2.11107">
        <ele>37</ele>
        <time>2017-06-18T08:12:49Z</time>
      </trkpt>
      <trkpt lat="48.60021" lon="-2.11088">
        <ele>39</ele>
        <time>2017-06-18T08:12:52Z</time>
      </trkpt>
      <trkpt lat="48.60018" lon="-2.11055">
        <ele>40</ele>
        <time>2017-06-18T08:13:00Z</time>
      </trkpt>
      <trkpt lat="48.60018" lon="-2.1104">
        <ele>39</ele>
        <time>2017-06-18T08:13:03Z</time>
      </trkpt>
      <trkpt lat="48.6002" lon="-2.11024">
        <ele>40</ele>
        <time>2017-06-18T08:13:08Z</time>
      </trkpt>
      <trkpt lat="48.60021" lon="-2.11006">
        <ele>41</ele>
        <time>2017-06-18T08:13:13Z</time>
      </trkpt>
      <trkpt lat="48.60021" lon="-2.10979">
        <ele>43</ele>
        <time>2017-06-18T08:13:19Z</time>
      </trkpt>
      <trkpt lat="48.60022" lon="-2.1095">
        <ele>43</ele>
        <time>2017-06-18T08:13:27Z</time>
      </trkpt>
      <trkpt lat="48.60022" lon="-2.10945">
        <ele>43</ele>
        <time>2017-06-18T08:13:28Z</time>
      </trkpt>
      <trkpt lat="48.60023" lon="-2.10924">
        <ele>43</ele>
        <time>2017-06-18T08:13:33Z</time>
      </trkpt>
      <trkpt lat="48.60022" lon="-2.109">
        <ele>43</ele>
        <time>2017-06-18T08:13:39Z</time>
      </trkpt>
      <trkpt lat="48.60013" lon="-2.10873">
        <ele>43</ele>
        <time>2017-06-18T08:13:45Z</time>
      </trkpt>
      <trkpt lat="48.60009" lon="-2.10868">
        <ele>41</ele>
        <time>2017-06-18T08:13:47Z</time>
      </trkpt>
      <trkpt lat="48.59995" lon="-2.10857">
        <ele>44</ele>
        <time>2017-06-18T08:13:53Z</time>
      </trkpt>
      <trkpt lat="48.59971" lon="-2.10846">
        <ele>43</ele>
        <time>2017-06-18T08:13:59Z</time>
      </trkpt>
      <trkpt lat="48.59941" lon="-2.10825">
        <ele>42</ele>
        <time>2017-06-18T08:14:04Z</time>
      </trkpt>
      <trkpt lat="48.59923" lon="-2.10804">
        <ele>45</ele>
        <time>2017-06-18T08:14:08Z</time>
      </trkpt>
      <trkpt lat="48.59908" lon="-2.1079">
        <ele>44</ele>
        <time>2017-06-18T08:14:13Z</time>
      </trkpt>
      <trkpt lat="48.5987" lon="-2.10755">
        <ele>39</ele>
        <time>2017-06-18T08:14:21Z</time>
      </trkpt>
      <trkpt lat="48.59861" lon="-2.10745">
        <ele>39</ele>
        <time>2017-06-18T08:14:22Z</time>
      </trkpt>
      <trkpt lat="48.59841" lon="-2.10719">
        <ele>40</ele>
        <time>2017-06-18T08:14:28Z</time>
      </trkpt>
      <trkpt lat="48.59824" lon="-2.10694">
        <ele>40</ele>
        <time>2017-06-18T08:14:33Z</time>
      </trkpt>
      <trkpt lat="48.59808" lon="-2.10673">
        <ele>40</ele>
        <time>2017-06-18T08:14:37Z</time>
      </trkpt>
      <trkpt lat="48.59786" lon="-2.10646">
        <ele>43</ele>
        <time>2017-06-18T08:14:44Z</time>
      </trkpt>
      <trkpt lat="48.59771" lon="-2.10631">
        <ele>42</ele>
        <time>2017-06-18T08:14:47Z</time>
      </trkpt>
      <trkpt lat="48.59752" lon="-2.10615">
        <ele>42</ele>
        <time>2017-06-18T08:14:53Z</time>
      </trkpt>
      <trkpt lat="48.59734" lon="-2.10599">
        <ele>44</ele>
        <time>2017-06-18T08:14:58Z</time>
      </trkpt>
      <trkpt lat="48.59716" lon="-2.10586">
        <ele>44</ele>
        <time>2017-06-18T08:15:02Z</time>
      </trkpt>
      <trkpt lat="48.59699" lon="-2.10572">
        <ele>43</ele>
        <time>2017-06-18T08:15:08Z</time>
      </trkpt>
      <trkpt lat="48.59675" lon="-2.10552">
        <ele>43</ele>
        <time>2017-06-18T08:15:14Z</time>
      </trkpt>
      <trkpt lat="48.5966" lon="-2.10539">
        <ele>44</ele>
        <time>2017-06-18T08:15:18Z</time>
      </trkpt>
      <trkpt lat="48.59637" lon="-2.10519">
        <ele>44</ele>
        <time>2017-06-18T08:15:22Z</time>
      </trkpt>
      <trkpt lat="48.59613" lon="-2.105">
        <ele>44</ele>
        <time>2017-06-18T08:15:28Z</time>
      </trkpt>
      <trkpt lat="48.59586" lon="-2.10479">
        <ele>42</ele>
        <time>2017-06-18T08:15:32Z</time>
      </trkpt>
      <trkpt lat="48.59556" lon="-2.10452">
        <ele>41</ele>
        <time>2017-06-18T08:15:38Z</time>
      </trkpt>
      <trkpt lat="48.59533" lon="-2.1042">
        <ele>41</ele>
        <time>2017-06-18T08:15:43Z</time>
      </trkpt>
      <trkpt lat="48.59512" lon="-2.10385">
        <ele>41</ele>
        <time>2017-06-18T08:15:47Z</time>
      </trkpt>
      <trkpt lat="48.59494" lon="-2.10354">
        <ele>43</ele>
        <time>2017-06-18T08:15:52Z</time>
      </trkpt>
      <trkpt lat="48.59475" lon="-2.10326">
        <ele>43</ele>
        <time>2017-06-18T08:15:59Z</time>
      </trkpt>
      <trkpt lat="48.59461" lon="-2.1031">
        <ele>45</ele>
        <time>2017-06-18T08:16:03Z</time>
      </trkpt>
      <trkpt lat="48.59443" lon="-2.10291">
        <ele>46</ele>
        <time>2017-06-18T08:16:07Z</time>
      </trkpt>
      <trkpt lat="48.59424" lon="-2.10273">
        <ele>46</ele>
        <time>2017-06-18T08:16:13Z</time>
      </trkpt>
      <trkpt lat="48.59397" lon="-2.10253">
        <ele>48</ele>
        <time>2017-06-18T08:16:19Z</time>
      </trkpt>
      <trkpt lat="48.59379" lon="-2.10243">
        <ele>47</ele>
        <time>2017-06-18T08:16:26Z</time>
      </trkpt>
      <trkpt lat="48.59377" lon="-2.10242">
        <ele>49</ele>
        <time>2017-06-18T08:16:28Z</time>
      </trkpt>
      <trkpt lat="48.59379" lon="-2.10245">
        <ele>52</ele>
        <time>2017-06-18T08:16:33Z</time>
      </trkpt>
      <trkpt lat="48.59369" lon="-2.10242">
        <ele>54</ele>
        <time>2017-06-18T08:16:38Z</time>
      </trkpt>
      <trkpt lat="48.5935" lon="-2.1022">
        <ele>53</ele>
        <time>2017-06-18T08:16:45Z</time>
      </trkpt>
      <trkpt lat="48.5934" lon="-2.10211">
        <ele>53</ele>
        <time>2017-06-18T08:16:48Z</time>
      </trkpt>
      <trkpt lat="48.59323" lon="-2.10198">
        <ele>53</ele>
        <time>2017-06-18T08:16:53Z</time>
      </trkpt>
      <trkpt lat="48.59306" lon="-2.10185">
        <ele>54</ele>
        <time>2017-06-18T08:16:58Z</time>
      </trkpt>
      <trkpt lat="48.5929" lon="-2.10169">
        <ele>53</ele>
        <time>2017-06-18T08:17:02Z</time>
      </trkpt>
      <trkpt lat="48.59277" lon="-2.10149">
        <ele>52</ele>
        <time>2017-06-18T08:17:08Z</time>
      </trkpt>
      <trkpt lat="48.5927" lon="-2.10124">
        <ele>53</ele>
        <time>2017-06-18T08:17:12Z</time>
      </trkpt>
      <trkpt lat="48.59265" lon="-2.101">
        <ele>53</ele>
        <time>2017-06-18T08:17:17Z</time>
      </trkpt>
      <trkpt lat="48.59263" lon="-2.10076">
        <ele>53</ele>
        <time>2017-06-18T08:17:22Z</time>
      </trkpt>
      <trkpt lat="48.59262" lon="-2.10052">
        <ele>54</ele>
        <time>2017-06-18T08:17:28Z</time>
      </trkpt>
      <trkpt lat="48.59259" lon="-2.10028">
        <ele>54</ele>
        <time>2017-06-18T08:17:32Z</time>
      </trkpt>
      <trkpt lat="48.59254" lon="-2.10004">
        <ele>55</ele>
        <time>2017-06-18T08:17:38Z</time>
      </trkpt>
      <trkpt lat="48.59244" lon="-2.09987">
        <ele>55</ele>
        <time>2017-06-18T08:17:43Z</time>
      </trkpt>
      <trkpt lat="48.59225" lon="-2.09977">
        <ele>55</ele>
        <time>2017-06-18T08:17:49Z</time>
      </trkpt>
      <trkpt lat="48.5921" lon="-2.09971">
        <ele>56</ele>
        <time>2017-06-18T08:17:53Z</time>
      </trkpt>
      <trkpt lat="48.5919" lon="-2.0996">
        <ele>57</ele>
        <time>2017-06-18T08:17:58Z</time>
      </trkpt>
      <trkpt lat="48.59157" lon="-2.09945">
        <ele>57</ele>
        <time>2017-06-18T08:18:04Z</time>
      </trkpt>
      <trkpt lat="48.59143" lon="-2.09938">
        <ele>57</ele>
        <time>2017-06-18T08:18:07Z</time>
      </trkpt>
      <trkpt lat="48.59119" lon="-2.09924">
        <ele>56</ele>
        <time>2017-06-18T08:18:12Z</time>
      </trkpt>
      <trkpt lat="48.59095" lon="-2.09912">
        <ele>55</ele>
        <time>2017-06-18T08:18:18Z</time>
      </trkpt>
      <trkpt lat="48.59069" lon="-2.09898">
        <ele>55</ele>
        <time>2017-06-18T08:18:23Z</time>
      </trkpt>
      <trkpt lat="48.59042" lon="-2.09889">
        <ele>55</ele>
        <time>2017-06-18T08:18:28Z</time>
      </trkpt>
      <trkpt lat="48.59017" lon="-2.09886">
        <ele>54</ele>
        <time>2017-06-18T08:18:32Z</time>
      </trkpt>
      <trkpt lat="48.58993" lon="-2.09887">
        <ele>55</ele>
        <time>2017-06-18T08:18:37Z</time>
      </trkpt>
      <trkpt lat="48.58964" lon="-2.09886">
        <ele>56</ele>
        <time>2017-06-18T08:18:43Z</time>
      </trkpt>
      <trkpt lat="48.58932" lon="-2.09889">
        <ele>56</ele>
        <time>2017-06-18T08:18:48Z</time>
      </trkpt>
      <trkpt lat="48.58899" lon="-2.09895">
        <ele>55</ele>
        <time>2017-06-18T08:18:53Z</time>
      </trkpt>
      <trkpt lat="48.58865" lon="-2.09912">
        <ele>53</ele>
        <time>2017-06-18T08:18:58Z</time>
      </trkpt>
      <trkpt lat="48.58824" lon="-2.09941">
        <ele>54</ele>
        <time>2017-06-18T08:19:03Z</time>
      </trkpt>
      <trkpt lat="48.58791" lon="-2.09958">
        <ele>52</ele>
        <time>2017-06-18T08:19:08Z</time>
      </trkpt>
      <trkpt lat="48.58755" lon="-2.09982">
        <ele>51</ele>
        <time>2017-06-18T08:19:12Z</time>
      </trkpt>
      <trkpt lat="48.58721" lon="-2.10005">
        <ele>51</ele>
        <time>2017-06-18T08:19:17Z</time>
      </trkpt>
      <trkpt lat="48.58696" lon="-2.10022">
        <ele>51</ele>
        <time>2017-06-18T08:19:23Z</time>
      </trkpt>
      <trkpt lat="48.58684" lon="-2.10014">
        <ele>49</ele>
        <time>2017-06-18T08:19:27Z</time>
      </trkpt>
      <trkpt lat="48.58682" lon="-2.09991">
        <ele>49</ele>
        <time>2017-06-18T08:19:33Z</time>
      </trkpt>
      <trkpt lat="48.58679" lon="-2.09963">
        <ele>48</ele>
        <time>2017-06-18T08:19:38Z</time>
      </trkpt>
      <trkpt lat="48.58675" lon="-2.09925">
        <ele>46</ele>
        <time>2017-06-18T08:19:43Z</time>
      </trkpt>
      <trkpt lat="48.58671" lon="-2.09885">
        <ele>45</ele>
        <time>2017-06-18T08:19:48Z</time>
      </trkpt>
      <trkpt lat="48.58665" lon="-2.09824">
        <ele>44</ele>
        <time>2017-06-18T08:19:54Z</time>
      </trkpt>
      <trkpt lat="48.58661" lon="-2.09801">
        <ele>43</ele>
        <time>2017-06-18T08:19:57Z</time>
      </trkpt>
      <trkpt lat="48.58658" lon="-2.09772">
        <ele>46</ele>
        <time>2017-06-18T08:20:03Z</time>
      </trkpt>
      <trkpt lat="48.58656" lon="-2.09747">
        <ele>46</ele>
        <time>2017-06-18T08:20:08Z</time>
      </trkpt>
      <trkpt lat="48.58653" lon="-2.09724">
        <ele>47</ele>
        <time>2017-06-18T08:20:13Z</time>
      </trkpt>
      <trkpt lat="48.58651" lon="-2.09702">
        <ele>47</ele>
        <time>2017-06-18T08:20:18Z</time>
      </trkpt>
      <trkpt lat="48.5865" lon="-2.09681">
        <ele>49</ele>
        <time>2017-06-18T08:20:22Z</time>
      </trkpt>
      <trkpt lat="48.58647" lon="-2.0966">
        <ele>49</ele>
        <time>2017-06-18T08:20:28Z</time>
      </trkpt>
      <trkpt lat="48.58645" lon="-2.0964">
        <ele>50</ele>
        <time>2017-06-18T08:20:33Z</time>
      </trkpt>
      <trkpt lat="48.58642" lon="-2.09616">
        <ele>51</ele>
        <time>2017-06-18T08:20:39Z</time>
      </trkpt>
      <trkpt lat="48.58641" lon="-2.096">
        <ele>51</ele>
        <time>2017-06-18T08:20:42Z</time>
      </trkpt>
      <trkpt lat="48.58639" lon="-2.09578">
        <ele>51</ele>
        <time>2017-06-18T08:20:47Z</time>
      </trkpt>
      <trkpt lat="48.58636" lon="-2.09556">
        <ele>50</ele>
        <time>2017-06-18T08:20:52Z</time>
      </trkpt>
      <trkpt lat="48.58634" lon="-2.09531">
        <ele>51</ele>
        <time>2017-06-18T08:20:57Z</time>
      </trkpt>
      <trkpt lat="48.58632" lon="-2.09507">
        <ele>52</ele>
        <time>2017-06-18T08:21:02Z</time>
      </trkpt>
      <trkpt lat="48.58629" lon="-2.09483">
        <ele>53</ele>
        <time>2017-06-18T08:21:07Z</time>
      </trkpt>
      <trkpt lat="48.58626" lon="-2.09461">
        <ele>53</ele>
        <time>2017-06-18T08:21:12Z</time>
      </trkpt>
      <trkpt lat="48.58624" lon="-2.0944">
        <ele>54</ele>
        <time>2017-06-18T08:21:18Z</time>
      </trkpt>
      <trkpt lat="48.58621" lon="-2.09416">
        <ele>54</ele>
        <time>2017-06-18T08:21:23Z</time>
      </trkpt>
      <trkpt lat="48.58618" lon="-2.09391">
        <ele>54</ele>
        <time>2017-06-18T08:21:27Z</time>
      </trkpt>
      <trkpt lat="48.58614" lon="-2.09363">
        <ele>55</ele>
        <time>2017-06-18T08:21:32Z</time>
      </trkpt>
      <trkpt lat="48.5861" lon="-2.09335">
        <ele>56</ele>
        <time>2017-06-18T08:21:37Z</time>
      </trkpt>
      <trkpt lat="48.58605" lon="-2.09311">
        <ele>57</ele>
        <time>2017-06-18T08:21:42Z</time>
      </trkpt>
      <trkpt lat="48.58598" lon="-2.09279">
        <ele>56</ele>
        <time>2017-06-18T08:21:48Z</time>
      </trkpt>
      <trkpt lat="48.58594" lon="-2.09258">
        <ele>56</ele>
        <time>2017-06-18T08:21:53Z</time>
      </trkpt>
      <trkpt lat="48.58586" lon="-2.09229">
        <ele>57</ele>
        <time>2017-06-18T08:21:58Z</time>
      </trkpt>
      <trkpt lat="48.58579" lon="-2.09197">
        <ele>56</ele>
        <time>2017-06-18T08:22:03Z</time>
      </trkpt>
      <trkpt lat="48.58571" lon="-2.09162">
        <ele>56</ele>
        <time>2017-06-18T08:22:08Z</time>
      </trkpt>
      <trkpt lat="48.58562" lon="-2.09125">
        <ele>57</ele>
        <time>2017-06-18T08:22:13Z</time>
      </trkpt>
      <trkpt lat="48.58555" lon="-2.09087">
        <ele>58</ele>
        <time>2017-06-18T08:22:17Z</time>
      </trkpt>
      <trkpt lat="48.58547" lon="-2.09051">
        <ele>56</ele>
        <time>2017-06-18T08:22:22Z</time>
      </trkpt>
      <trkpt lat="48.58535" lon="-2.08999">
        <ele>58</ele>
        <time>2017-06-18T08:22:31Z</time>
      </trkpt>
      <trkpt lat="48.58533" lon="-2.08989">
        <ele>59</ele>
        <time>2017-06-18T08:22:32Z</time>
      </trkpt>
      <trkpt lat="48.5853" lon="-2.08965">
        <ele>61</ele>
        <time>2017-06-18T08:22:37Z</time>
      </trkpt>
      <trkpt lat="48.58526" lon="-2.08944">
        <ele>62</ele>
        <time>2017-06-18T08:22:42Z</time>
      </trkpt>
      <trkpt lat="48.58524" lon="-2.08923">
        <ele>62</ele>
        <time>2017-06-18T08:22:47Z</time>
      </trkpt>
      <trkpt lat="48.58523" lon="-2.08902">
        <ele>63</ele>
        <time>2017-06-18T08:22:53Z</time>
      </trkpt>
      <trkpt lat="48.58521" lon="-2.0888">
        <ele>63</ele>
        <time>2017-06-18T08:22:58Z</time>
      </trkpt>
      <trkpt lat="48.58519" lon="-2.08855">
        <ele>63</ele>
        <time>2017-06-18T08:23:03Z</time>
      </trkpt>
      <trkpt lat="48.58518" lon="-2.08828">
        <ele>63</ele>
        <time>2017-06-18T08:23:07Z</time>
      </trkpt>
      <trkpt lat="48.58516" lon="-2.08802">
        <ele>63</ele>
        <time>2017-06-18T08:23:13Z</time>
      </trkpt>
      <trkpt lat="48.58513" lon="-2.08777">
        <ele>63</ele>
        <time>2017-06-18T08:23:17Z</time>
      </trkpt>
      <trkpt lat="48.5851" lon="-2.08751">
        <ele>64</ele>
        <time>2017-06-18T08:23:23Z</time>
      </trkpt>
      <trkpt lat="48.58504" lon="-2.08725">
        <ele>64</ele>
        <time>2017-06-18T08:23:28Z</time>
      </trkpt>
      <trkpt lat="48.58496" lon="-2.08701">
        <ele>65</ele>
        <time>2017-06-18T08:23:32Z</time>
      </trkpt>
      <trkpt lat="48.58486" lon="-2.08679">
        <ele>67</ele>
        <time>2017-06-18T08:23:37Z</time>
      </trkpt>
      <trkpt lat="48.58475" lon="-2.08657">
        <ele>67</ele>
        <time>2017-06-18T08:23:43Z</time>
      </trkpt>
      <trkpt lat="48.58462" lon="-2.08635">
        <ele>68</ele>
        <time>2017-06-18T08:23:48Z</time>
      </trkpt>
      <trkpt lat="48.58447" lon="-2.08616">
        <ele>69</ele>
        <time>2017-06-18T08:23:52Z</time>
      </trkpt>
      <trkpt lat="48.58431" lon="-2.08599">
        <ele>69</ele>
        <time>2017-06-18T08:23:57Z</time>
      </trkpt>
      <trkpt lat="48.58414" lon="-2.08585">
        <ele>68</ele>
        <time>2017-06-18T08:24:02Z</time>
      </trkpt>
      <trkpt lat="48.58394" lon="-2.08574">
        <ele>69</ele>
        <time>2017-06-18T08:24:08Z</time>
      </trkpt>
      <trkpt lat="48.58371" lon="-2.08567">
        <ele>69</ele>
        <time>2017-06-18T08:24:13Z</time>
      </trkpt>
      <trkpt lat="48.58343" lon="-2.08564">
        <ele>69</ele>
        <time>2017-06-18T08:24:19Z</time>
      </trkpt>
      <trkpt lat="48.58325" lon="-2.08565">
        <ele>68</ele>
        <time>2017-06-18T08:24:22Z</time>
      </trkpt>
      <trkpt lat="48.583" lon="-2.08569">
        <ele>67</ele>
        <time>2017-06-18T08:24:28Z</time>
      </trkpt>
      <trkpt lat="48.58273" lon="-2.08572">
        <ele>67</ele>
        <time>2017-06-18T08:24:32Z</time>
      </trkpt>
      <trkpt lat="48.58244" lon="-2.08576">
        <ele>66</ele>
        <time>2017-06-18T08:24:37Z</time>
      </trkpt>
      <trkpt lat="48.58203" lon="-2.08584">
        <ele>64</ele>
        <time>2017-06-18T08:24:44Z</time>
      </trkpt>
      <trkpt lat="48.58185" lon="-2.08587">
        <ele>64</ele>
        <time>2017-06-18T08:24:47Z</time>
      </trkpt>
      <trkpt lat="48.58154" lon="-2.08588">
        <ele>63</ele>
        <time>2017-06-18T08:24:52Z</time>
      </trkpt>
      <trkpt lat="48.58123" lon="-2.08596">
        <ele>61</ele>
        <time>2017-06-18T08:24:57Z</time>
      </trkpt>
      <trkpt lat="48.58091" lon="-2.08591">
        <ele>65</ele>
        <time>2017-06-18T08:25:02Z</time>
      </trkpt>
      <trkpt lat="48.58029" lon="-2.08597">
        <ele>66</ele>
        <time>2017-06-18T08:25:12Z</time>
      </trkpt>
      <trkpt lat="48.58001" lon="-2.08599">
        <ele>65</ele>
        <time>2017-06-18T08:25:15Z</time>
      </trkpt>
      <trkpt lat="48.57988" lon="-2.086">
        <ele>65</ele>
        <time>2017-06-18T08:25:18Z</time>
      </trkpt>
      <trkpt lat="48.57955" lon="-2.08601">
        <ele>66</ele>
        <time>2017-06-18T08:25:23Z</time>
      </trkpt>
      <trkpt lat="48.57926" lon="-2.08592">
        <ele>66</ele>
        <time>2017-06-18T08:25:28Z</time>
      </trkpt>
      <trkpt lat="48.57892" lon="-2.08573">
        <ele>66</ele>
        <time>2017-06-18T08:25:33Z</time>
      </trkpt>
      <trkpt lat="48.57869" lon="-2.08557">
        <ele>66</ele>
        <time>2017-06-18T08:25:38Z</time>
      </trkpt>
      <trkpt lat="48.57844" lon="-2.08535">
        <ele>65</ele>
        <time>2017-06-18T08:25:43Z</time>
      </trkpt>
      <trkpt lat="48.57821" lon="-2.0851">
        <ele>65</ele>
        <time>2017-06-18T08:25:47Z</time>
      </trkpt>
      <trkpt lat="48.57797" lon="-2.08479">
        <ele>63</ele>
        <time>2017-06-18T08:25:53Z</time>
      </trkpt>
      <trkpt lat="48.57775" lon="-2.08442">
        <ele>62</ele>
        <time>2017-06-18T08:25:58Z</time>
      </trkpt>
      <trkpt lat="48.57755" lon="-2.08398">
        <ele>62</ele>
        <time>2017-06-18T08:26:03Z</time>
      </trkpt>
      <trkpt lat="48.5774" lon="-2.08349">
        <ele>61</ele>
        <time>2017-06-18T08:26:08Z</time>
      </trkpt>
      <trkpt lat="48.57724" lon="-2.08297">
        <ele>60</ele>
        <time>2017-06-18T08:26:13Z</time>
      </trkpt>
      <trkpt lat="48.57705" lon="-2.08234">
        <ele>59</ele>
        <time>2017-06-18T08:26:19Z</time>
      </trkpt>
      <trkpt lat="48.57689" lon="-2.0818">
        <ele>57</ele>
        <time>2017-06-18T08:26:23Z</time>
      </trkpt>
      <trkpt lat="48.57675" lon="-2.08136">
        <ele>56</ele>
        <time>2017-06-18T08:26:28Z</time>
      </trkpt>
      <trkpt lat="48.5766" lon="-2.08082">
        <ele>54</ele>
        <time>2017-06-18T08:26:32Z</time>
      </trkpt>
      <trkpt lat="48.57641" lon="-2.08023">
        <ele>54</ele>
        <time>2017-06-18T08:26:38Z</time>
      </trkpt>
      <trkpt lat="48.57629" lon="-2.07983">
        <ele>55</ele>
        <time>2017-06-18T08:26:44Z</time>
      </trkpt>
      <trkpt lat="48.57619" lon="-2.07946">
        <ele>55</ele>
        <time>2017-06-18T08:26:50Z</time>
      </trkpt>
      <trkpt lat="48.57614" lon="-2.0793">
        <ele>55</ele>
        <time>2017-06-18T08:26:54Z</time>
      </trkpt>
      <trkpt lat="48.57601" lon="-2.07887">
        <ele>56</ele>
        <time>2017-06-18T08:27:01Z</time>
      </trkpt>
      <trkpt lat="48.57599" lon="-2.07882">
        <ele>58</ele>
        <time>2017-06-18T08:27:02Z</time>
      </trkpt>
      <trkpt lat="48.57592" lon="-2.07853">
        <ele>61</ele>
        <time>2017-06-18T08:27:08Z</time>
      </trkpt>
      <trkpt lat="48.57586" lon="-2.0783">
        <ele>62</ele>
        <time>2017-06-18T08:27:13Z</time>
      </trkpt>
      <trkpt lat="48.57579" lon="-2.07809">
        <ele>63</ele>
        <time>2017-06-18T08:27:18Z</time>
      </trkpt>
      <trkpt lat="48.57573" lon="-2.07789">
        <ele>64</ele>
        <time>2017-06-18T08:27:23Z</time>
      </trkpt>
      <trkpt lat="48.57569" lon="-2.07773">
        <ele>65</ele>
        <time>2017-06-18T08:27:28Z</time>
      </trkpt>
      <trkpt lat="48.57577" lon="-2.07768">
        <ele>65</ele>
        <time>2017-06-18T08:27:32Z</time>
      </trkpt>
    </trkseg>
  </trk>
</gpx>